Weather Roundup
Issued by NWS Springfield, MO

Home | Current Version | Previous Version | Text Only | Print | Product List | Glossary On
Versions: 1 2 3 4 5 6 7 8 9 10 11 12 13 14 15 16 17 18 19 20 21 22 23 24 25 26 27 28 29 30 31 32 33 34 35 36 37 38 39 40 41 42 43 44 45 46 47 48 49 50
000
NZUS99 KSGF 040559
HRRSGF

HOURLY WEATHER
NATIONAL WEATHER SERVICE SPRINGFIELD MO
100 AM CDT SAT JUL 04 2015

......SGF CWA......

CITY           SKY/WX    TMP DP  RH WIND       PRES   REMARKS
SPRINGFIELD    CLEAR     69  65  86 NE5       29.96F
6HR MIN TEMP:  69; 6HR MAX TEMP:  79;

JOPLIN         CLEAR     69  68  96 CALM      29.97S
6HR MIN TEMP:  69; 6HR MAX TEMP:  79;

WEST PLAINS    CLEAR     68  65  90 CALM      29.96S
6HR MIN TEMP:  68; 6HR MAX TEMP:  76;

ROLLA          CLEAR     65  62  90 NE5       29.96F
6HR MIN TEMP:  64; 6HR MAX TEMP:  77;

OSAGE BEACH    CLEAR     64  61  88 NE3       29.97S

......SURROUNDING SGF CWA......

CITY           SKY/WX    TMP DP  RH WIND       PRES   REMARKS
CHANUTE        MOCLDY    71  66  84 NE6       29.98F
PARSONS        CLOUDY    72  69  90 CALM      29.97F
COFFEYVILLE    PTCLDY    72  68  87 NE6       29.95F
EMPORIA        PTCLDY    65  62  90 CALM      30.00S
ROGERS AR      FOG       68  68 100 CALM      29.97S VSB 3/4
SILOAM SPRINGS CLEAR     68  63  83 NE5         N/A
HARRISON AR    FOG       68  68 100 NW3       29.96S VSB<1/4
NEAR YELLVILLE MOCLDY    68  66  94 S3        29.92S

......KANSAS AND MISSOURI......

CITY           SKY/WX    TMP DP  RH WIND       PRES   REMARKS
KANSAS CTY INT PTCLDY    68  58  70 E6        30.00S
DOWNTOWN KC    PTCLDY    70  59  68 N3        29.99S
COLUMBIA       CLEAR     67  61  81 NE7       29.98S
SEDALIA        CLEAR     65  61  87 N3        29.99F
ST JOSEPH      CLEAR     63  60  90 CALM      30.00S
ST LOUIS       CLEAR     73  65  75 CALM      29.96S HAZE
SPIRIT OF STL  CLEAR     66  66 100 CALM      29.95S FOG
KIRKSVILLE     CLEAR     58  57  97 CALM      30.00S FOG
WICHITA        CLEAR     72  63  73 NE5       29.99F
TOPEKA         MOCLDY    64  62  93 CALM      30.00S FOG
OLATHE         CLEAR     67  59  75 NE5       29.99S

......TENNESSEE......

CITY           SKY/WX    TMP DP  RH WIND       PRES   REMARKS
MEMPHIS        CLOUDY    73  70  90 S5        29.92F
NASHVILLE      MOCLDY    71  69  93 CALM      29.93S

......ARKANSAS.......

CITY           SKY/WX    TMP DP  RH WIND       PRES   REMARKS
FAYETTEVILLE   FOG       65  65 100 CALM      29.96S VSB 1/4
FT SMITH       CLEAR     72  69  90 CALM      29.92F
LITTLE ROCK    LGT RAIN  71  67  87 SW10      29.91S

......OKLAHOMA.......

CITY           SKY/WX    TMP DP  RH WIND       PRES   REMARKS
TULSA          PTCLDY    75  71  87 NE6       29.94R
PONCA CITY     CLEAR     70  65  84 NE3       29.96S
MCALESTER      LGT RAIN  70  68  93 E7        29.94F
OKLAHOMA CITY  PTCLDY    78  70  76 NE3       29.95R

......IOWA............

CITY           SKY/WX    TMP DP  RH WIND       PRES   REMARKS
DES MOINES     CLEAR     67  57  70 CALM      29.98S
QUAD CITIES    CLEAR     60  58  92 CALM      29.97R FOG

......ILLINOIS........

CITY           SKY/WX    TMP DP  RH WIND       PRES   REMARKS
QUINCY         CLEAR     66  61  84 CALM      29.98R
CHICAGO        PTCLDY    62  56  80 CALM      29.96R




USA.gov is the U.S. government's official web portal to all federal, state and local government web resources and services.